{"data":{"norad_id":68970,"intl_designator":"2026-099V","name":"STARLINK-37257","alt_names":[],"object_type":"PAYLOAD","status":"ACTIVE","operator":null,"country":"US","launch_date":"2026-05-01","launch_site_code":"AFETR","launch_vehicle":null,"mission":null,"orbit_class":"UNKNOWN","rcs_meters":null,"size_class":null,"mass_kg":null,"dimensions":null,"purposes":["comms"],"wikipedia_slug":null,"has_3d_model":false,"image_url":null,"decayed_at":null,"tle_current":{"epoch":"2026-05-25T04:00:03.998880Z","epoch_age_seconds":64616,"freshness":"FRESH","line1":"1 68970U 26099V   26145.16671295 -.01875996  00000+0 -23369-1 0  9991","line2":"2 68970  53.1590 270.0674 0000972  82.5197 212.0809 15.62470642  4857","mean_motion":15.62470642,"eccentricity":9.72e-5,"inclination_deg":53.159,"raan_deg":270.0674,"arg_perigee_deg":82.5197,"mean_anomaly_deg":212.0809,"bstar":-0.023369,"rev_number":485,"period_min":92.161731637835,"perigee_km":379.8660259129,"apogee_km":381.17990941061,"semimajor_km":6758.6599676618,"source":"CELESTRAK","updated_at":"2026-05-25T13:38:22.076391Z"}}}